Starlink 1266

operational
NORAD ID: 45383 Int'l Des: 2020-019 Owner: SPXS Country: US Constellation: starlink
LEOCIRCULARSTARLINK_TYPE

About Starlink 1266

Description loading...

Live Position

Loading 3D Globe...

Upcoming Passes

Altitude History

Altitude vs Time

uPlot chart will show altitude changes over time

Two-Line Element Set

1 45383U 20019Z 25340.92986001 .00000009 00000-0 19503-4 0 9995
2 45383 53.0538 203.0375 0001552 103.2571 256.8591 15.06394435316029
Epoch: Dec 6, 2025 • Age: 9 hours

Current Status

Altitude 566.7 km
Velocity 7.58 km/s
Sub-Earth Point -52.99°S, 83.97°W
Launch Date Mar 18, 2020
Age 5.7 years
Type internet

Technical Details

Classification Payload
Mass 260.00 kg
Dry Mass 248.00 kg
Total Mass 260.00 kg
Length 0.20 m
Diameter 2.80 m
Span 9.00 m
Shape Box + pan
Manufacturer SPXS
Bus Type Starlink
Phase Status In Orbit
Owner/State SPXS/US

Large Constellations

Loading constellations...